Location: ?ejeti?ky
(50.4060°N, 14.9016°E)
Time: 08:10:57
(UTC+00:00)

N. Korean satellite - Pass Details

Date: 11 December 2021
Orbit: 446 x 491 km, 97.3° (Epoch: 18 January)

Event Time Altitude Azimuth Distance (km) Brightness Sun altitude
Rises 04:31:10 0° 11° (NNE) 2,464 10.2 -21.0°
Reaches altitude 10° 04:33:12 10° 10° (N) 1,586 9.1 -20.7°
Enters shadow 04:34:33 22° 8° (N) 1,024 8.1 -20.5°
Exits shadow 04:38:38 22° 201° (SSW) 1,024 8.1 -19.9°
Drops below altitude 10° 04:39:58 10° 199° (SSW) 1,577 9.1 -19.6°
Sets 04:41:59 0° 198° (SSW) 2,448 10.1 -19.3°
